Simultaneous Nadir Overpasses (SNOs) Predictions

Prediction of SNOs between AQUA and METOP-B Satellite Orbit:

Table of predicted SNOs for the next 14.0 days since TLE Epoch: 9/4/2021
Index Date (AQUA) Time (AQUA) Lat,Lon (AQUA) SZA (AQUA ) Date (METOP-B) Time (METOP-B) Lat,Lon (METOP-B) SZA (METOP-B ) Distance(km) Time Diff (sec)
1 09/04/2021 02:01:09 73.79, 144.00 66.64 09/04/2021 02:01:34 73.81, 143.99 66.66 2.58 25
2 09/06/2021 20:45:56 -73.76, 42.86 112.37 09/06/2021 20:45:17 -73.74, 42.88 112.39 2.90 39
3 09/06/2021 21:35:24 73.80,-149.59 67.69 09/06/2021 21:35:56 73.78,-149.67 67.67 3.04 32
4 09/09/2021 16:20:12 -73.77, 109.27 111.31 09/09/2021 16:19:39 -73.76, 109.35 111.32 2.95 33
5 09/09/2021 17:09:40 73.82, -83.20 68.76 09/09/2021 17:10:18 73.80, -83.22 68.74 1.87 38
6 09/12/2021 11:54:27 -73.74, 175.77 110.28 09/12/2021 11:54:02 -73.73, 175.69 110.28 2.60 25
7 09/12/2021 12:43:56 73.85, -16.82 69.85 09/12/2021 12:44:40 73.82, -16.77 69.82 3.24 44
8 09/15/2021 06:39:03 73.05, 76.02 70.06 09/15/2021 06:37:58 72.95, 73.03 70.05 97.84 65
9 09/15/2021 07:28:43 -73.77,-117.85 109.17 09/15/2021 07:28:24 -73.75,-117.85 109.19 1.91 19
10 09/15/2021 08:18:11 73.83, 49.66 70.91 09/15/2021 08:19:02 73.83, 49.68 70.91 1.02 51



Historial Predications of SNOs between AQUA and METOP-B
